User: anonymous   Login
Location: Unspecified
(0.0000°N, 0.0000°E)
Time: 12:09:41
(UTC+00:00)
Language:

Landsat 7 - Orbit

View from above orbital plane
View from above orbital plane
View from above satellite
View from above satellite

Ground track
Ground track

The orbit data is extracted from the following two-line orbital elements,

1 25682U 99020A   17085.79078777 +.00000032 +00000-0 +17123-4 0  9999
2 25682 098.2181 158.0683 0000697 086.1810 273.9466 14.57107468954593
Epoch (UTC): 26 March 2017 18:58:44
Eccentricity: 0.0000697
inclination: 98.2181°
perigee height: 702 km
apogee height: 703 km
right ascension of ascending node: 158.0683°
argument of perigee: 86.1810°
revolutions per day: 14.57107468
mean anomaly at epoch: 273.9466°
orbit number at epoch: 95459

The dashed part of the orbit path shows where the satellite is in the earth's shadow,  

DLR